Location: Zagreb
(45.8000°N, 16.0000°E)
Time: 15:48:53
(UTC+02:00)

Vanguard 1 - Pass Details

Date: 11 August 2022
Orbit: 649 x 3832 km, 34.2° (Epoch: 25 September)

Event Time Altitude Azimuth Distance (km) Brightness Sun altitude
Rises 06:00:54 0° 241° (WSW) 6,055 13.4 0.8°
Reaches altitude 10° 06:04:23 10° 237° (WSW) 5,394 13.2 1.4°
Maximum altitude 06:21:37 57° 165° (SSE) 4,004 13.2 4.2°
Drops below altitude 10° 06:44:08 10° 96° (E) 6,823 16.0 8.0°
Sets 06:49:14 0° 93° (E) 7,674 16.4 8.8°
